TimeMST,TemperatureF,Dew PointF,Humidity,Sea Level PressureIn,VisibilityMPH,Wind Direction,Wind SpeedMPH,Gust SpeedMPH,PrecipitationIn,Events,Conditions,WindDirDegrees,DateUTC
12:53 AM,39.0,30.9,73,29.62,10.0,WNW,5.8,-,N/A,,Partly Cloudy,290,2013-03-04 07:53:00
1:53 AM,36.0,28.9,76,29.62,10.0,West,4.6,-,N/A,,Mostly Cloudy,260,2013-03-04 08:53:00
2:53 AM,39.9,30.9,70,29.62,10.0,West,8.1,-,N/A,,Mostly Cloudy,280,2013-03-04 09:53:00
3:53 AM,45.0,32.0,60,29.63,10.0,NNW,15.0,-,N/A,,Overcast,340,2013-03-04 10:53:00
4:53 AM,37.9,30.0,73,29.70,10.0,North,17.3,-,N/A,,Clear,360,2013-03-04 11:53:00
5:53 AM,35.1,27.0,72,29.75,10.0,North,18.4,-,N/A,,Clear,350,2013-03-04 12:53:00
6:53 AM,33.1,25.0,72,29.78,10.0,North,18.4,-,N/A,,Partly Cloudy,360,2013-03-04 13:53:00
7:53 AM,36.0,25.0,64,29.81,10.0,North,21.9,-,N/A,,Clear,350,2013-03-04 14:53:00
8:53 AM,37.9,24.1,57,29.81,10.0,North,21.9,31.1,N/A,,Clear,10,2013-03-04 15:53:00
9:53 AM,39.0,21.0,49,29.81,10.0,NNE,24.2,29.9,N/A,,Overcast,20,2013-03-04 16:53:00
10:53 AM,43.0,21.0,42,29.82,10.0,NNE,15.0,26.5,N/A,,Overcast,20,2013-03-04 17:53:00
11:53 AM,41.0,19.9,43,29.85,10.0,North,18.4,25.3,N/A,,Overcast,360,2013-03-04 18:53:00
12:53 PM,35.1,28.0,76,29.88,10.0,North,27.6,31.1,N/A,,Overcast,350,2013-03-04 19:53:00
1:36 PM,33.8,30.2,87,29.87,3.0,North,13.8,-,0.00,Snow,Light Snow,10,2013-03-04 20:36:00
1:41 PM,32.0,30.2,93,29.87,1.8,North,11.5,-,0.00,Snow,Light Snow,10,2013-03-04 20:41:00
1:53 PM,32.0,30.0,92,29.94,1.0,North,10.4,-,0.01,Snow,Light Snow,360,2013-03-04 20:53:00
2:00 PM,32.0,30.2,93,29.90,0.8,North,10.4,-,0.00,Snow,Light Snow,350,2013-03-04 21:00:00
2:08 PM,32.0,30.2,93,29.90,0.5,North,12.7,-,0.01,Fog-Snow,Snow,350,2013-03-04 21:08:00
2:23 PM,30.2,28.4,93,29.91,0.5,North,20.7,-,0.02,Fog-Snow,Snow,350,2013-03-04 21:23:00
2:40 PM,30.2,28.4,93,29.92,0.8,North,24.2,29.9,0.02,Snow,Light Snow,350,2013-03-04 21:40:00
2:53 PM,30.9,28.9,92,29.98,0.8,North,20.7,-,0.02,Snow,Light Snow,350,2013-03-04 21:53:00
3:09 PM,30.2,28.4,93,29.94,1.0,North,19.6,25.3,0.01,Snow,Light Snow,350,2013-03-04 22:09:00
3:20 PM,30.2,28.4,93,29.95,2.5,North,21.9,28.8,0.01,Snow,Light Snow,350,2013-03-04 22:20:00
3:41 PM,30.2,28.4,93,29.95,1.5,North,18.4,-,0.01,Snow,Light Snow,350,2013-03-04 22:41:00
3:53 PM,30.9,28.9,92,30.00,1.2,North,17.3,-,0.01,Snow,Light Snow,350,2013-03-04 22:53:00
4:18 PM,30.2,28.4,93,29.99,2.0,North,13.8,-,0.00,Snow,Light Snow,350,2013-03-04 23:18:00
4:43 PM,30.2,28.4,93,30.00,4.0,North,11.5,-,0.00,Snow,Light Snow,360,2013-03-04 23:43:00
4:53 PM,30.9,28.9,92,30.06,3.0,NNW,12.7,-,0.00,Snow,Light Snow,340,2013-03-04 23:53:00
5:17 PM,30.2,28.4,93,30.04,10.0,NW,11.5,-,0.00,,Overcast,320,2013-03-05 00:17:00
5:53 PM,30.9,23.0,72,30.10,10.0,North,16.1,29.9,0.00,,Overcast,350,2013-03-05 00:53:00
6:53 PM,30.0,21.0,69,30.14,10.0,NNW,15.0,-,N/A,,Clear,340,2013-03-05 01:53:00
7:53 PM,28.0,18.0,66,30.19,10.0,North,17.3,-,N/A,,Clear,360,2013-03-05 02:53:00
8:53 PM,26.1,15.1,63,30.24,10.0,North,21.9,-,N/A,,Clear,350,2013-03-05 03:53:00
9:53 PM,23.0,12.9,65,30.26,10.0,NNW,19.6,-,N/A,,Clear,340,2013-03-05 04:53:00
10:53 PM,21.0,12.0,68,30.26,10.0,NNW,17.3,-,N/A,,Clear,330,2013-03-05 05:53:00